Tracking 26544 objects as of 9-Dec-2022
HD Live streaming from Space Station
objects crossing your sky now

STARLINK-5149

Track STARLINK-5149 now!
10-day predictions
STARLINK-5149 is classified as:


NORAD ID: 53981
Int'l Code: 2022-125T
Perigee: 411.5 km
Apogee: 413.4 km
Inclination: 53.2 °
Period: 92.7 minutes
Semi major axis: 6783 km
RCS: Unknown
Launch date: October 5, 2022
Source: United States (US)
Launch site: AIR FORCE WESTERN TEST RANGE (AFWTR)
aabbcc
Your satellite tracking list
Your tracking list is empty




NASA's NSSDC Master Catalog

Two Line Element Set (TLE):
1 53981U 22125T   22342.79774690 -.00426823  00000-0 -68593-2 0  9990
2 53981  53.2167 136.4417 0001435  64.5081 295.6079 15.53906373 10365
Source of the keplerian elements: AFSPC